Temperature
22 20 19 20 20 21 22 22 22 23 25 24 23 23 23 23 23 22 22 22 22 22 22 22 22 21 21 21 20 20 20 19 19 18 18 18 18 17 17 17 17 17 17 17
20 19 21 22 22 22 22 22 22 23 25 25 23 23 23 22 22 22 22 22 21 21 21 21 21 21 21 20 20 20 20 19 19 18 18 18 17 17 17 17 17 17 17 16
20 21 23 23 23 23 23 22 22 23 23 24 23 22 22 22 22 22 22 22 21 21 20 20 20 21 20 20 20 19 19 19 19 18 18 17 17 17 17 17 16 16 16 16
20 22 23 23 23 23 22 23 23 24 22 21 22 20 20 20 20 21 21 21 21 20 20 20 20 20 20 20 20 19 19 19 18 18 17 17 17 17 17 16 16 16 16 16
20 22 22 22 23 23 22 23 23 23 22 21 21 20 19 20 20 19 19 20 20 20 20 20 20 20 20 20 19 19 19 18 18 17 17 17 17 17 17 16 16 16 16 16
21 22 23 23 24 24 23 23 22 20 19 20 20 20 19 19 20 19 19 20 20 20 19 19 19 19 19 19 19 18 18 18 18 17 17 17 17 17 16 16 16 16 16 16
21 22 23 24 23 23 22 20 19 19 18 19 20 20 18 19 20 20 19 19 19 19 19 19 19 19 19 19 18 18 18 18 17 17 17 17 17 17 16 16 16 16 16 16
19 20 22 23 22 22 21 19 18 19 18 18 19 19 19 20 20 20 20 20 19 19 19 19 19 19 19 18 18 18 18 17 17 17 17 17 16 16 16 16 16 16 15 15
19 20 22 23 24 22 22 20 19 18 19 18 18 19 19 19 19 19 19 19 19 19 19 19 19 19 18 18 18 18 18 17 17 17 16 16 16 16 16 16 15 15 15 15
19 20 21 23 23 22 21 20 18 17 18 18 18 18 18 18 18 18 18 18 18 19 18 18 18 18 18 18 18 17 17 17 17 16 16 16 16 16 16 15 15 15 15 15
19 19 20 20 21 21 21 20 18 17 17 17 17 17 18 17 17 17 17 18 18 18 18 18 18 18 18 18 17 17 17 16 16 16 15 16 15 15 15 15 15 15 15 15
18 17 17 19 20 21 21 20 18 17 17 17 16 17 18 17 17 17 17 18 18 18 18 18 18 18 17 17 17 16 16 16 16 15 15 15 15 15 15 15 15 14 14 14
19 17 17 18 19 19 20 20 18 16 15 16 16 17 18 17 17 17 17 17 17 18 18 17 17 17 17 17 16 16 16 16 15 15 15 15 15 15 15 14 14 14 14 14
19 16 16 17 18 19 19 19 19 17 16 16 17 17 17 17 16 16 17 17 17 17 17 17 17 17 17 16 16 16 15 15 15 15 15 15 15 14 14 14 14 14 14 14
16 16 17 17 19 19 19 19 19 18 17 17 17 17 16 16 16 16 17 17 17 16 16 16 16 16 16 16 16 15 15 15 15 15 15 14 14 14 14 14 14 14 14 14
15 16 16 17 18 19 18 19 19 18 18 17 17 16 16 16 16 16 17 17 16 16 16 16 16 16 16 16 15 15 15 15 14 14 14 14 14 14 14 14 14 14 14 14
14 15 15 15 17 17 17 17 18 17 17 17 16 15 15 15 15 15 16 16 16 16 16 16 16 16 15 15 15 15 15 14 14 14 14 14 14 13 13 13 13 13 13 13
14 14 13 14 16 16 16 17 17 16 15 15 15 14 15 15 15 16 16 16 16 16 16 16 16 16 15 15 15 15 15 14 14 14 14 13 13 13 13 13 13 13 13 13
14 14 13 13 14 15 16 16 16 15 14 14 14 14 14 15 15 15 16 16 16 16 15 16 16 16 15 15 15 15 14 14 14 14 13 13 13 13 13 13 13 13 13 13
14 13 13 13 14 14 15 16 16 15 14 14 14 13 14 14 13 13 15 15 15 15 15 15 15 15 15 14 14 14 14 14 14 13 13 13 13 13 13 13 13 13 13 12
13 13 13 13 13 13 14 15 16 15 13 13 14 13 13 13 13 14 14 15 15 15 15 15 15 14 14 14 14 14 14 14 13 13 13 13 13 13 13 13 12 12 12 12
13 12 12 12 12 13 14 14 14 13 13 13 13 13 13 13 14 14 14 14 14 14 14 14 14 14 14 14 14 14 13 13 13 13 13 13 13 13 12 12 12 12 12 12
12 12 11 11 11 12 13 13 13 14 13 13 13 13 13 13 13 13 13 13 14 14 13 14 14 13 13 13 13 13 13 13 13 13 13 13 12 12 12 12 12 12 12 12
12 12 11 11 11 12 13 13 13 13 13 13 13 13 13 13 13 13 13 13 13 13 13 13 13 13 13 13 13 13 13 12 12 12 12 12 12 12 12 12 12 12 12 11
11 11 11 11 11 12 12 13 13 13 13 13 13 13 13 13 13 13 13 13 13 13 13 13 13 13 12 12 12 12 12 12 12 12 12 12 12 12 12 12 12 12 11 11
10 10 10 10 11 10 11 12 13 13 13 13 13 12 13 13 13 12 12 12 12 12 12 12 12 12 12 12 12 12 12 12 12 12 12 12 12 12 12 12 11 11 11 11
Wind_Speed
4 3 8 11 11 10 9 9 11 12 10 4 4 5 5 4 5 6 6 7 8 8 7 8 9 9 10 9 9 10 9 8 8 6 5 5 4 3 3 3 5 5 5 5
2 8 13 10 9 9 9 10 11 10 8 3 2 3 4 4 8 9 9 9 9 8 7 8 8 8 9 9 9 8 9 9 8 7 6 5 4 3 3 2 3 5 5 5
11 10 8 8 9 10 10 9 9 9 7 3 1 3 4 3 1 4 6 8 9 12 12 10 10 9 9 8 8 8 8 8 8 7 5 4 3 2 1 2 2 3 5 5
8 11 9 8 10 9 10 10 10 8 3 4 1 3 6 3 1 1 3 6 7 9 10 10 10 9 9 8 7 6 6 7 7 7 7 7 6 5 4 4 3 3 3 4
8 6 8 10 13 10 10 9 8 6 4 3 2 3 6 2 3 4 4 6 8 10 11 11 10 9 8 8 7 7 6 6 6 6 7 7 5 4 3 3 3 3 2 3
10 8 7 10 11 9 6 2 3 2 2 2 5 4 5 4 6 5 5 6 9 10 10 9 8 7 7 7 7 7 7 5 6 6 6 6 7 6 5 4 4 3 2 2
8 9 8 7 7 5 2 3 3 4 2 5 4 3 5 5 4 6 7 7 7 9 10 9 8 8 8 8 8 7 8 6 5 6 5 6 7 7 7 5 5 4 3 3
5 8 7 5 7 6 5 8 7 5 5 4 2 3 4 3 1 3 5 7 7 8 9 9 10 9 9 9 8 8 8 7 6 5 5 5 5 4 4 5 5 5 4 4
5 6 6 5 4 6 4 5 8 6 2 1 3 3 4 5 4 3 3 5 6 8 8 9 9 8 9 8 8 8 8 6 6 5 5 4 4 4 4 4 4 4 3 4
6 5 6 4 2 1 5 5 5 5 4 3 3 3 3 3 1 1 2 3 4 6 8 8 8 8 8 8 7 7 7 6 5 5 5 5 4 4 4 4 4 4 3 3
3 3 5 4 0 2 1 2 3 3 5 5 3 5 4 7 5 3 3 3 5 6 8 8 8 7 7 7 7 7 7 5 4 4 4 4 4 4 4 3 4 4 3 4
2 4 3 6 4 2 4 3 5 4 3 4 4 5 4 6 5 5 3 3 4 6 6 7 8 7 7 7 6 6 6 5 4 4 4 4 4 4 4 3 3 4 4 4
2 4 0 5 5 3 2 1 2 5 4 3 4 5 2 2 2 3 3 2 3 4 5 6 7 7 7 6 6 6 5 5 5 4 4 4 4 4 3 3 3 3 3 3
3 3 5 6 5 1 1 2 1 3 3 4 5 6 3 1 2 1 2 3 4 5 5 5 6 6 6 6 6 6 4 4 4 4 4 4 4 4 4 3 3 3 3 4
4 2 1 2 2 0 2 3 1 1 5 6 5 4 5 4 4 4 4 5 6 5 5 6 6 6 6 5 5 5 4 4 4 4 4 4 3 3 3 3 3 2 2 3
4 2 2 2 2 2 3 4 3 2 2 3 2 2 2 1 2 2 4 6 5 5 5 5 5 6 6 6 5 5 5 4 4 4 4 3 3 3 3 3 2 2 2 1
1 3 2 2 3 3 3 3 1 1 2 1 2 2 1 3 1 2 3 5 6 5 5 5 5 5 5 6 6 5 5 5 5 4 3 3 3 3 3 3 3 3 3 2
4 3 3 1 1 3 5 1 2 4 3 3 2 1 2 2 3 2 2 3 4 4 4 4 4 5 5 4 4 5 5 5 5 4 4 3 3 2 2 2 2 3 2 2
7 6 3 3 2 3 3 2 0 2 1 3 2 2 4 3 4 3 2 1 3 3 3 3 3 5 5 5 5 6 5 5 4 4 4 3 3 2 2 2 3 2 2 2
3 5 5 3 3 4 4 4 2 3 1 3 2 3 3 4 3 2 2 2 2 2 2 3 3 5 6 5 5 6 5 5 4 4 4 3 3 3 3 3 2 2 2 2
2 2 3 3 3 3 3 5 2 2 4 2 1 2 2 1 2 2 1 3 3 2 2 3 4 4 4 4 6 6 5 5 5 4 3 3 3 3 3 2 2 1 2 2
2 2 2 2 2 4 4 3 2 3 2 1 2 2 3 2 2 2 3 3 4 3 3 3 4 4 3 4 5 5 5 4 3 3 3 3 2 2 2 2 1 2 3 2
1 2 3 3 4 2 1 2 1 2 1 0 1 2 3 3 3 2 2 2 2 2 2 3 4 4 3 3 4 5 3 3 3 3 3 3 3 2 1 2 2 2 2 2
3 2 2 2 0 1 1 2 2 2 2 1 1 3 2 3 3 2 1 1 2 2 3 3 4 4 3 2 2 2 3 3 4 4 3 2 2 1 0 0 1 2 2 2
2 2 1 1 1 1 2 2 2 2 3 3 2 2 3 4 3 2 2 2 2 2 2 2 3 3 3 2 2 2 3 4 4 3 2 2 2 2 1 0 0 1 2 3
2 0 1 3 3 2 2 2 1 2 2 2 2 1 1 3 3 2 2 2 3 3 2 3 2 2 2 2 2 1 2 4 4 3 2 2 2 1 1 1 1 3 2 1
Wind_Direction
226 171 228 231 220 220 244 261 270 272 274 278 246 240 237 196 155 159 166 165 165 168 159 147 143 144 142 149 154 160 160 160 154 157 159 158 168 167 167 174 164 161 164 165
281 244 238 234 240 239 250 260 271 283 280 261 252 254 228 189 177 174 176 176 164 149 138 146 143 143 149 155 158 164 166 165 166 171 173 169 160 162 167 164 153 159 162 166
211 238 241 238 251 252 255 243 250 259 288 318 22 306 290 272 195 176 175 170 162 156 154 155 154 153 155 164 165 166 169 168 170 166 148 133 110 99 118 158 172 177 174 170
236 244 249 251 253 238 255 250 246 252 251 274 206 262 281 254 260 219 174 169 164 156 152 154 153 156 163 169 162 156 159 162 165 160 158 156 163 170 186 180 179 178 174 170
238 231 232 244 246 236 237 246 245 244 227 269 284 199 274 260 233 225 186 175 166 164 160 161 161 163 162 157 156 155 147 153 152 157 169 164 161 168 157 149 158 170 182 180
240 245 225 233 247 241 230 262 332 31 85 260 247 191 264 236 220 204 184 177 170 166 160 156 152 147 148 147 156 158 150 151 152 157 168 167 159 154 149 158 171 178 180 194
274 271 262 251 270 285 157 107 20 346 339 249 245 191 246 247 224 193 183 180 171 162 158 155 150 152 155 157 161 164 159 157 162 161 166 171 167 160 164 169 176 174 182 200
231 268 261 237 219 225 213 154 168 203 224 266 302 220 254 284 225 187 166 159 159 161 159 161 166 164 161 160 161 160 159 160 161 159 168 169 162 160 169 170 174 180 191 197
201 251 276 254 232 179 190 196 183 158 196 234 269 276 313 7 40 58 109 139 161 173 166 168 166 157 153 156 157 158 155 151 148 151 152 148 147 151 162 171 175 183 190 190
184 246 285 296 356 337 170 170 99 126 165 230 267 258 248 285 304 76 121 171 176 165 170 168 162 156 156 154 151 155 154 155 150 158 165 155 154 158 160 162 177 186 189 183
173 200 294 340 186 251 359 95 113 142 159 166 221 256 220 210 204 172 180 189 173 156 159 163 160 153 147 144 150 155 150 145 147 168 167 153 156 158 157 170 185 185 184 179
193 152 248 258 255 207 176 173 150 158 225 175 179 251 252 195 198 179 181 182 158 156 156 156 147 142 141 146 149 153 151 146 166 172 161 163 163 162 171 183 186 181 184 187
130 118 55 329 335 8 82 105 137 145 140 174 188 246 270 173 161 167 164 157 136 133 143 144 138 141 146 150 152 156 158 159 167 160 160 162 171 181 191 192 180 178 185 189
112 119 166 204 229 244 308 333 59 122 160 206 219 235 272 257 181 178 143 130 132 131 135 133 139 145 149 152 153 154 156 157 161 157 158 165 184 196 196 190 178 179 182 188
78 102 166 221 239 240 331 323 311 210 194 196 227 231 245 238 198 188 158 132 122 132 143 145 150 150 152 151 150 149 153 154 154 154 162 179 191 187 182 176 179 177 183 196
60 95 55 355 346 17 336 315 304 288 224 202 174 248 282 333 59 109 144 137 130 141 146 142 142 149 156 157 160 158 159 157 151 149 157 174 175 173 182 185 181 170 186 199
123 130 115 239 287 359 302 281 256 327 342 175 186 231 347 41 84 163 168 137 140 146 145 148 157 164 167 166 163 159 158 153 147 147 151 159 170 182 191 183 170 181 189 193
165 140 141 174 68 223 244 274 96 97 37 40 86 28 37 128 168 178 164 156 149 144 143 153 165 165 160 153 145 145 141 141 143 145 150 156 162 170 173 168 182 201 194 191
173 156 140 143 187 254 281 343 47 149 7 0 79 60 48 78 84 29 355 98 136 160 164 157 158 156 150 150 150 140 139 140 141 148 159 169 169 167 176 189 209 213 196 207
121 129 138 149 172 226 244 290 280 130 215 324 44 98 75 68 94 276 329 68 92 98 105 107 113 130 145 158 147 138 143 148 161 173 179 183 176 172 186 203 209 208 190 204
45 74 149 164 196 243 289 303 6 143 230 283 59 112 97 109 193 222 55 65 82 98 99 114 120 124 141 150 142 144 152 167 179 175 166 168 180 187 193 193 182 183 184 185
151 130 155 143 182 243 314 20 109 205 204 133 105 123 111 91 90 88 86 87 84 76 82 108 122 119 123 135 141 148 166 179 161 152 155 166 171 187 190 170 182 178 170 168
86 171 169 173 202 238 32 119 154 137 122 74 115 117 117 107 98 89 92 93 85 83 86 106 124 119 107 111 139 153 173 162 148 143 158 169 168 174 180 174 185 182 177 175
336 34 99 94 158 38 48 73 63 80 95 40 91 125 124 122 125 111 106 87 85 94 105 99 113 121 123 118 119 148 156 148 140 146 162 169 164 172 150 156 171 176 189 190
299 348 53 109 232 25 14 25 29 34 53 59 55 112 140 132 138 144 160 154 133 120 103 108 116 130 149 142 139 140 139 137 141 149 156 165 175 183 167 151 233 201 215 208
337 244 175 223 228 182 243 297 18 56 39 54 44 18 100 142 147 139 166 159 137 129 115 108 108 124 152 157 167 166 150 143 146 155 165 171 173 168 158 150 18 13 5 300
Height
1479 1486 1490 1485 1484 1486 1487 1489 1489 1479 1469 1472 1474 1473 1469 1468 1469 1471 1473 1474 1476 1478 1480 1481 1484 1486 1488 1491 1493 1495 1497 1500 1502 1504 1506 1507 1508 1509 1511 1512 1512 1513 1514 1515
1483 1485 1476 1475 1477 1480 1483 1487 1485 1477 1467 1469 1472 1472 1468 1466 1467 1468 1470 1472 1474 1476 1479 1480 1482 1485 1487 1490 1492 1494 1496 1498 1500 1502 1504 1505 1506 1507 1509 1510 1511 1512 1512 1513
1482 1475 1470 1473 1475 1478 1479 1483 1481 1479 1471 1468 1471 1478 1472 1467 1466 1467 1468 1470 1471 1473 1475 1478 1481 1483 1486 1489 1491 1493 1495 1497 1498 1500 1502 1504 1505 1506 1507 1508 1509 1510 1511 1512
1475 1468 1469 1470 1472 1473 1480 1469 1471 1471 1478 1484 1478 1493 1478 1470 1468 1467 1467 1468 1470 1472 1474 1476 1478 1481 1483 1486 1489 1491 1493 1495 1497 1499 1500 1501 1502 1503 1505 1506 1507 1508 1509 1510
1470 1464 1466 1469 1465 1465 1469 1462 1465 1468 1475 1482 1480 1490 1483 1471 1472 1468 1467 1468 1468 1470 1472 1474 1476 1478 1481 1484 1486 1489 1491 1493 1495 1496 1498 1499 1500 1501 1503 1505 1506 1507 1508 1509
1462 1458 1459 1459 1456 1457 1459 1463 1466 1472 1481 1493 1483 1488 1487 1476 1469 1466 1466 1466 1467 1468 1470 1472 1475 1477 1480 1482 1484 1487 1488 1490 1492 1494 1496 1497 1498 1500 1501 1503 1504 1505 1506 1507
1465 1458 1454 1453 1457 1456 1460 1477 1494 1496 1501 1496 1479 1483 1483 1467 1462 1461 1462 1464 1465 1465 1467 1471 1473 1475 1478 1480 1482 1484 1486 1487 1489 1492 1494 1495 1497 1498 1500 1501 1502 1503 1504 1504
1474 1471 1454 1450 1454 1459 1460 1472 1494 1502 1502 1494 1481 1484 1475 1462 1459 1458 1458 1460 1463 1465 1466 1469 1471 1473 1475 1477 1480 1482 1484 1486 1488 1490 1492 1494 1495 1497 1498 1499 1500 1501 1501 1502
1471 1468 1449 1446 1445 1450 1459 1466 1467 1483 1487 1494 1489 1478 1469 1460 1459 1458 1459 1461 1463 1464 1465 1467 1470 1472 1473 1476 1478 1481 1482 1484 1485 1487 1489 1492 1493 1495 1496 1497 1498 1499 1499 1500
1458 1465 1453 1445 1444 1446 1451 1456 1472 1483 1495 1499 1490 1484 1480 1468 1464 1461 1461 1461 1461 1462 1464 1466 1468 1470 1472 1475 1477 1480 1482 1482 1484 1486 1488 1490 1492 1493 1494 1495 1496 1496 1497 1498
1453 1464 1459 1452 1454 1456 1455 1460 1468 1478 1481 1494 1498 1490 1466 1465 1462 1461 1461 1460 1461 1461 1462 1465 1466 1468 1471 1473 1476 1478 1480 1481 1483 1486 1487 1488 1490 1491 1492 1493 1494 1495 1495 1496
1452 1461 1468 1459 1449 1446 1451 1457 1466 1480 1483 1483 1489 1486 1458 1458 1458 1458 1458 1459 1460 1461 1463 1464 1465 1467 1470 1473 1475 1476 1478 1480 1482 1485 1486 1487 1488 1489 1490 1491 1491 1492 1494 1494
1450 1462 1473 1469 1462 1454 1454 1454 1458 1467 1477 1483 1486 1479 1456 1456 1457 1458 1457 1458 1459 1461 1463 1463 1464 1466 1469 1471 1473 1475 1477 1478 1481 1483 1484 1485 1486 1487 1488 1488 1489 1490 1491 1492
1445 1459 1468 1473 1467 1459 1457 1455 1455 1464 1477 1478 1474 1468 1460 1457 1456 1457 1457 1457 1459 1460 1462 1463 1464 1466 1468 1470 1472 1474 1476 1478 1479 1481 1482 1483 1484 1485 1486 1486 1487 1488 1489 1490
1448 1460 1459 1457 1453 1453 1454 1455 1454 1459 1463 1469 1465 1463 1460 1456 1455 1455 1455 1457 1459 1461 1462 1463 1464 1465 1468 1469 1470 1472 1475 1476 1478 1479 1480 1481 1482 1483 1484 1484 1485 1486 1487 1488
1452 1459 1459 1459 1454 1453 1455 1454 1453 1454 1455 1457 1458 1461 1455 1454 1455 1455 1455 1455 1457 1460 1462 1463 1464 1465 1467 1468 1469 1470 1472 1475 1476 1478 1479 1480 1481 1481 1482 1483 1483 1484 1485 1485
1455 1459 1465 1467 1457 1456 1463 1456 1454 1455 1455 1457 1461 1460 1455 1455 1455 1456 1456 1455 1456 1459 1460 1461 1463 1465 1466 1467 1468 1469 1471 1473 1475 1476 1477 1478 1479 1480 1480 1481 1481 1482 1482 1483
1454 1459 1467 1468 1465 1473 1464 1451 1451 1455 1458 1456 1456 1455 1453 1453 1454 1455 1455 1455 1456 1458 1459 1460 1462 1463 1464 1466 1467 1468 1470 1472 1473 1474 1476 1477 1477 1478 1478 1479 1479 1480 1480 1480
1445 1454 1465 1471 1472 1467 1458 1453 1453 1457 1461 1457 1456 1455 1453 1453 1454 1456 1455 1455 1456 1457 1458 1459 1461 1462 1463 1465 1466 1468 1469 1471 1472 1473 1474 1475 1476 1476 1476 1477 1477 1477 1478 1478
1444 1450 1461 1467 1470 1472 1462 1452 1450 1454 1462 1457 1455 1455 1455 1454 1459 1458 1456 1455 1456 1457 1458 1459 1460 1461 1463 1465 1466 1467 1468 1469 1470 1472 1473 1474 1474 1475 1475 1475 1475 1475 1475 1476
1454 1456 1460 1464 1468 1464 1457 1451 1450 1462 1464 1457 1455 1454 1454 1455 1457 1457 1456 1456 1456 1457 1458 1459 1460 1461 1462 1463 1465 1466 1467 1468 1469 1471 1471 1472 1473 1473 1473 1473 1473 1474 1474 1474
1458 1460 1462 1465 1469 1468 1455 1452 1456 1459 1455 1455 1455 1454 1454 1454 1455 1456 1456 1456 1456 1457 1457 1458 1459 1460 1461 1463 1464 1464 1465 1466 1468 1469 1470 1471 1471 1472 1472 1471 1471 1472 1472 1472
1457 1458 1460 1462 1465 1458 1455 1455 1455 1455 1455 1454 1453 1453 1453 1453 1454 1456 1457 1457 1458 1458 1458 1458 1459 1460 1461 1462 1463 1464 1465 1466 1467 1468 1469 1469 1470 1470 1470 1469 1470 1470 1470 1470
1455 1453 1457 1459 1458 1456 1455 1455 1455 1455 1455 1454 1453 1452 1453 1452 1454 1455 1456 1457 1458 1458 1459 1459 1459 1460 1461 1462 1463 1464 1464 1465 1466 1467 1467 1468 1468 1469 1469 1468 1468 1468 1468 1467
1458 1456 1458 1459 1457 1456 1456 1455 1455 1454 1454 1453 1453 1452 1453 1453 1454 1455 1455 1456 1457 1458 1458 1459 1459 1460 1461 1462 1462 1463 1464 1465 1465 1466 1466 1467 1467 1467 1467 1467 1467 1467 1467 1467
1459 1459 1460 1459 1456 1456 1456 1455 1455 1454 1453 1453 1453 1453 1452 1452 1453 1454 1455 1455 1456 1457 1458 1459 1460 1460 1460 1461 1462 1463 1463 1464 1464 1465 1465 1465 1465 1466 1466 1466 1466 1466 1466 1465